Weather in Popovka

Russia / Kursk Oblast     51°31′19″N   34°39′55″E
temp.,
°C
wind,
m/s
gust,
m/s
humid.,
%
clouds,
%
prec.,
mm/h
press.,
hPa
HPBL,
m
31 july, sat
sat3100:00+18wnw22690 0.0 100924
03:00+17w22710 0.0 101023
06:00+17wsw22755 0.0 101032
09:00+24wsw355142 0.0 1010442
12:00+29wsw45355 0.0 10102441
15:00+31w56317 0.0 10092878
18:00+30wsw453523 0.0 10091615
21:00+25nnw124675 0.0 101017
1 august, sun
sun100:00+21ese335719 0.0 101135
03:00+20s225945 0.0 101211
06:00+20s22596 0.0 101222
09:00+27ssw344443 0.0 1012393
12:00+28sw46413 0.0 1012580
15:00+32s56281 0.0 10112857
18:00+32ssw562975 0.0 10091088
21:00+25s223984 0.0 100915
2 august, mon
mon200:00+22s224920 0.0 101015
03:00+21w3563100 0.0 1010110
06:00+20sse36745 0.6 100997
09:00+27ssw585096 0.6 1008525
12:00+31ssw7842100 0.0 10071434
15:00+31sw793888 0.0 10071823
18:00+31s694192 0.0 10051628
21:00+19wsw101893100 4.5 1009813
3 august, tue
tue300:00+18ssw51190100 0.9 1007264
03:00+16wsw511926 0.9 1009367
06:00+16wnw598686 0.0 1010621
09:00+19wnw567110 0.0 1011711
12:00+24nw56495 0.0 10121499
15:00+26wnw4538100 0.0 10112509
18:00+23nw255499 0.1 1012235
21:00+19wnw226031 0.0 101420
4 august, wed
wed400:00+16wnw33713 0.0 101635
03:00+15wnw22820 0.0 101729
06:00+14w22835 0.0 101728
09:00+20w23610 0.0 1018524
12:00+24wsw4546100 0.0 10182213
15:00+25wsw3336100 0.0 10172274
18:00+25sw224029 0.0 1016924
21:00+19ssw1148100 0.0 101711